AO-07 1 07530U 74089B 22041.78872983 -.00000018 00000-0 17464-3 0 9999 2 07530 101.8899 21.3317 0012006 285.4422 193.8828 12.53652821161839 UO-11 1 14781U 84021B 22041.51565817 .00000660 00000-0 86395-4 0 9990 2 14781 97.6082 34.8245 0009083 28.3961 331.7747 14.83441735 21229 LO-19 1 20442U 90005G 22041.79413295 .00000083 00000-0 47040-4 0 9995 2 20442 98.7767 4.8437 0011744 175.5958 184.5331 14.33021865675029 HUBBLE 1 20580U 90037B 22041.43616954 .00001947 00000-0 10583-3 0 9992 2 20580 28.4700 290.0687 0002732 106.4739 67.9277 15.10021709546991 MET-2/21 1 22782U 93055A 22041.31962144 .00000068 00000-0 47661-4 0 9994 2 22782 82.5490 115.1529 0021861 347.7373 78.6651 13.83845493436427 AO-27 1 22825U 93061C 22041.67364010 .00000053 00000-0 38312-4 0 9993 2 22825 98.9021 69.9360 0009368 64.6164 295.5986 14.30144018480301 IO-26 1 22826U 93061D 22041.51744479 .00000062 00000-0 41737-4 0 9993 2 22826 98.8964 69.6644 0009773 53.0418 307.1657 14.30486194480267 FO-29 1 24278U 96046B 22041.54620043 -.00000008 00000-0 30937-4 0 9996 2 24278 98.5346 82.5947 0349372 252.4758 103.7927 13.53110124258449 NOAA-15 1 25338U 98030A 22041.77999263 .00000098 00000-0 59248-4 0 9991 2 25338 98.6598 72.8788 0009502 310.3265 49.7084 14.26088990235216 GO-32 1 25397U 98043D 22041.57881103 .00000041 00000-0 37792-4 0 9999 2 25397 98.8023 351.8241 0002274 102.1611 257.9822 14.23731617225378 ISS 1 25544U 98067A 22041.55493323 .00006763 00000-0 12771-3 0 9996 2 25544 51.6412 243.7057 0005670 116.5714 333.9560 15.49692082325546 NO-44 1 26931U 01043C 22041.36014784 .00000074 00000-0 60102-4 0 9995 2 26931 67.0520 26.4316 0007288 279.4583 80.5694 14.30661248 63228 SO-50 1 27607U 02058C 22041.28348498 .00000679 00000-0 11533-3 0 9990 2 27607 64.5565 330.9823 0069025 319.9699 39.6327 14.75910883 29604 CO-55 1 27844U 03031E 22041.73928349 .00000198 00000-0 10853-3 0 9994 2 27844 98.6810 51.3292 0010924 107.4757 252.7616 14.22379891965890 CO-57 1 27848U 03031J 22041.80400466 .00000163 00000-0 93734-4 0 9993 2 27848 98.6860 51.9349 0010710 119.9359 240.2884 14.21946988965713 RS-22 1 27939U 03042A 22041.82649111 .00000564 00000-0 10906-3 0 9994 2 27939 98.1690 182.7540 0011725 245.1177 114.8817 14.67132232982476 NOAA-18 1 28654U 05018A 22041.78339928 .00000144 00000-0 10167-3 0 9994 2 28654 98.9649 112.2487 0013631 332.6595 27.3858 14.12686795862181 CO-58 1 28895U 05043F 22041.34352653 .00000734 00000-0 14863-3 0 9993 2 28895 98.0857 174.8611 0016840 177.3545 182.7749 14.64087403868816 Falconsat-3 1 30776U 07006E 22041.28844429 .00021546 00000-0 44066-3 0 9997 2 30776 35.4346 7.7421 0004286 269.3668 90.6570 15.45210532829858 CO-65 1 32785U 08021C 22041.51472593 .00001512 00000-0 16598-3 0 9992 2 32785 97.6418 16.5560 0011446 298.3844 61.6219 14.89060269747591 AAUSAT2 1 32788U 08021F 22041.49294620 .00003205 00000-0 28812-3 0 9998 2 32788 97.5233 31.4938 0011303 183.1870 176.9282 14.96302679749443 DO-64 1 32789U 08021G 22041.56299893 .00009550 00000-0 57801-3 0 9993 2 32789 97.3548 72.6549 0012272 48.8432 311.3855 15.10760645752750 CO-66 1 32791U 08021J 22041.44260349 .00002060 00000-0 20894-3 0 9998 2 32791 97.5981 22.1302 0011371 251.7965 108.2017 14.91894481748255 RS-30 1 32953U 08025A 22041.69892884 .00000021 00000-0 80971-4 0 9992 2 32953 82.5009 262.7517 0019104 175.2142 184.9120 12.43107265622584 PRISM 1 33493U 09002B 22041.72712695 .00003946 00000-0 33475-3 0 9998 2 33493 98.2176 21.2837 0014258 216.2754 143.7501 14.98495201710009 NOAA-19 1 33591U 09005A 22041.77050419 .00000079 00000-0 67649-4 0 9999 2 33591 99.1645 73.1484 0013953 180.2312 179.8854 14.12528809670568 SRMSAT 1 37841U 11058D 22041.79304212 .00000376 00000-0 61764-4 0 9999 2 37841 19.9723 300.5194 0011827 33.0020 21.6786 14.10725015533552 HRBE 1 37855U 11061F 22041.07990743 .00006317 00000-0 29616-3 0 9999 2 37855 101.7163 93.2835 0161282 83.1202 278.8330 15.09553535562000 RS-40 1 38735U 12041C 22041.52081250 .00000024 00000-0 10166-3 0 9999 2 38735 82.4805 344.6477 0016250 291.0876 68.8464 12.42583950432753 ZACUBE-1 1 39417U 13066B 22041.50791515 .00001358 00000-0 17300-3 0 9993 2 39417 97.6213 18.8997 0059797 100.4969 260.2990 14.81829654444325 Delfi-N3xt 1 39428U 13066N 22041.54319160 .00002835 00000-0 44835-3 0 9995 2 39428 97.8047 341.5055 0118154 324.1371 35.1943 14.68481492439904 GOMX-1 1 39430U 13066Q 22041.53041854 .00000872 00000-0 16391-3 0 9994 2 39430 97.8159 315.9633 0151506 84.9246 276.9218 14.59844299437779 LO-74 1 39440U 13066AA 22041.47935230 .00000976 00000-0 14015-3 0 9994 2 39440 97.7098 4.5449 0079254 182.3232 177.7621 14.76543935441542 AO-73 1 39444U 13066AE 22041.47732518 .00001719 00000-0 21253-3 0 9990 2 39444 97.6102 21.2639 0058861 89.8808 270.9151 14.82801286442705 SPROUT 1 39770U 14029E 22041.73467903 .00004414 00000-0 47047-3 0 9998 2 39770 97.9290 158.1687 0009534 138.8054 221.3818 14.89366307418791 DTUSAT-2 1 40030U 14033W 22041.55803066 .00001751 00000-0 19025-3 0 9994 2 40030 97.9306 333.9416 0013117 108.8920 251.3720 14.89363803414759 EO-80 1 40032U 14033Y 22041.79623503 .00001653 00000-0 18010-3 0 9992 2 40032 97.9310 334.1912 0013107 109.2205 251.0432 14.89329060415283 HODOYOSHI-1 1 40299U 14070B 22041.81272968 .00003804 00000-0 15223-3 0 9999 2 40299 97.2596 113.6963 0011295 221.2518 271.4307 15.25608633403743 FIREBIRD FU3 1 40377U 15003B 22041.47726204 .00012151 00000-0 40385-3 0 9994 2 40377 99.1137 238.4607 0110541 93.7852 267.6028 15.25615339389033 FIREBIRD FU4 1 40378U 15003C 22041.77220944 .00013123 00000-0 43471-3 0 9997 2 40378 99.1140 239.0036 0110477 92.5034 268.8851 15.25699092389099 GRIFEX 1 40379U 15003D 22041.73613958 .00011246 00000-0 42457-3 0 9992 2 40379 99.1169 226.1323 0122943 130.8606 230.3358 15.20376562388363 XW-2A 1 40903U 15049E 22041.79989262 .00012683 00000-0 24007-3 0 9992 2 40903 97.2028 100.4903 0010296 215.3914 251.7014 15.48453294359637 XW-2C 1 40906U 15049H 22041.80428418 .00004215 00000-0 21211-3 0 9994 2 40906 97.4934 46.3761 0016203 81.1275 43.7166 15.17649942353703 XW-2D 1 40907U 15049J 22041.79789399 .00004741 00000-0 23519-3 0 9998 2 40907 97.4924 46.2644 0015497 77.3909 0.0310 15.18094101353740 LILACSAT-2 1 40908U 15049K 22041.78041929 .00002228 00000-0 12259-3 0 9995 2 40908 97.5148 43.7205 0017315 94.2253 30.8184 15.14969692353300 XW-2E 1 40909U 15049L 22041.80380992 .00007083 00000-0 32105-3 0 9991 2 40909 97.4687 50.5793 0014410 62.7941 63.1994 15.21066081354142 XW-2F 1 40910U 15049M 22041.49564537 .00007217 00000-0 33178-3 0 9997 2 40910 97.4751 49.3798 0015583 63.4131 87.7519 15.20553030353876 XW-2B 1 40911U 15049N 22041.82258396 .00004582 00000-0 22804-3 0 9994 2 40911 97.4919 46.9272 0015410 78.8010 42.9369 15.17999173353636 DCBB 1 40912U 15049P 22041.80177259 .00008001 00000-0 33916-3 0 9997 2 40912 97.4420 54.0528 0014661 34.1459 90.0456 15.23303100354455 TW-1A 1 40928U 15051D 22041.77069307 .00020669 00000-0 35801-3 0 9996 2 40928 97.0574 66.3173 0010479 125.3055 351.4508 15.50872235358555 IO-86 1 40931U 15052B 22041.68629318 .00000960 00000-0 44507-4 0 9991 2 40931 5.9984 353.2235 0012976 179.9645 180.0601 14.76731204344577 ATHENOXAT-1 1 41168U 15077C 22041.38886811 .00010618 00000-0 47582-3 0 9997 2 41168 14.9875 309.7019 0009713 260.6845 246.0699 15.17649291340958 ChubuSat-2 1 41338U 16012B 22041.52611268 .00001736 00000-0 12651-3 0 9994 2 41338 31.0029 111.7332 0013534 333.8383 26.1568 15.00863232328394 ChubuSat-3 1 41339U 16012C 22041.59391777 .00001674 00000-0 12134-3 0 9999 2 41339 31.0110 108.3066 0013547 342.8330 17.1847 15.00983709328402 Horyu-4 1 41340U 16012D 22041.51414593 .00002812 00000-0 20038-3 0 9992 2 41340 31.0051 89.2277 0013540 18.3689 341.7434 15.02446226328615 [email protected] 1 41459U 16025D 22041.67735264 .00006077 00000-0 28503-3 0 9997 2 41459 98.1687 197.8864 0153457 339.2957 20.2089 15.10189419318349 AAUSAT4 1 41460U 16025E 22041.75180321 .00009802 00000-0 42532-3 0 9993 2 41460 98.1654 203.1787 0138159 318.4758 40.5937 15.14276925318733 LO-87 1 41557U 16033B 22041.48152839 .00009186 00000-0 30381-3 0 9996 2 41557 97.3880 139.3290 0013558 107.7298 312.3986 15.31482100317932 NuSat2 1 41558U 16033C 22041.81718273 .00008513 00000-0 26387-3 0 9998 2 41558 97.4039 144.6703 0012621 98.5600 17.2641 15.33599775318223 Lapan A3 1 41603U 16040E 22041.81413201 .00001051 00000-0 51365-4 0 9995 2 41603 97.2255 84.2598 0011621 243.5354 204.4067 15.20292636312790 Pratham 1 41783U 16059A 22041.37704608 .00000321 00000-0 70889-4 0 9990 2 41783 97.9332 87.9078 0032800 213.3432 146.5705 14.63232972287046 TY-1 1 41844U 16066D 22041.57725184 .00009107 00000-0 34250-3 0 9992 2 41844 97.3961 54.4318 0014889 24.6736 90.5395 15.27268315292229 CAS-2T 1 41847U 16066G 22041.46859484 .00000794 00000-0 13013-3 0 9991 2 41847 98.5694 106.1955 0363936 229.4519 127.4453 14.38356926276093 EO-88 1 42017U 17008BX 22041.75889962 .00011701 00000-0 39759-3 0 9999 2 42017 97.2876 110.0054 0005207 357.3599 2.7614 15.30612366277673 CAS-4B 1 42759U 17034B 22041.81404303 .00003297 00000-0 20759-3 0 9991 2 42759 43.0193 310.1543 0008585 221.9693 201.9499 15.10876387257198 CAS-4A 1 42761U 17034D 22041.79849560 .00003318 00000-0 20832-3 0 9995 2 42761 43.0191 309.1193 0008672 225.1884 238.2391 15.10962851257199 NIUSat 1 42766U 17036B 22041.76940434 .00006654 00000-0 27560-3 0 9992 2 42766 97.2216 84.2056 0015914 59.1638 301.1163 15.24121477257497 Aalto 1 1 42775U 17036L 22041.76630251 .00005641 00000-0 23633-3 0 9997 2 42775 97.2176 84.2892 0014575 58.6822 301.5840 15.23819872257477 URSA MAIOR 1 42776U 17036M 22041.39155405 .00006048 00000-0 25034-3 0 9999 2 42776 97.2190 84.5480 0014319 59.2303 301.0343 15.24202169257443 Max Valier Sat 1 42778U 17036P 22041.55872191 .00005706 00000-0 23151-3 0 9995 2 42778 97.2259 87.0883 0012824 60.6509 299.6008 15.24915556257552 Pegasus 1 42784U 17036V 22041.67458029 .00008715 00000-0 33966-3 0 9993 2 42784 97.2200 87.8470 0012412 62.0654 298.1840 15.26118208257666 NUDATSat 1 42787U 17036Y 22041.57985252 .00012316 00000-0 43796-3 0 9992 2 42787 97.2231 91.0900 0011283 53.0800 307.1459 15.29064457257684 SUCHAI 1 1 42788U 17036Z 22041.06844294 .00008032 00000-0 30266-3 0 9995 2 42788 97.2209 88.6091 0011804 60.4135 299.8279 15.27268827257722 SKCUBE 1 42789U 17036AA 22041.34516452 .00008814 00000-0 33610-3 0 9993 2 42789 97.2206 88.4566 0011786 60.4146 299.8267 15.26845610257666 VZLUSAT 1 1 42790U 17036AB 22041.38394584 .00012165 00000-0 43358-3 0 9993 2 42790 97.2237 90.8822 0010723 55.1005 305.1242 15.28998698257806 VENTA 1 1 42791U 17036AC 22041.08266289 .00006260 00000-0 24143-3 0 9991 2 42791 97.2203 88.1664 0011489 61.9994 298.2406 15.26590817257618 Robusta 1B 1 42792U 17036AD 22041.40186652 .00009630 00000-0 36319-3 0 9995 2 42792 97.2206 88.9953 0011334 60.4937 299.7432 15.27191893257719 D-SAT 1 42794U 17036AF 22041.55123069 .00001228 00000-0 10927-3 0 9998 2 42794 97.4542 53.7051 0125390 149.2870 211.5767 14.91987261252557 TechnoSat 1 42829U 17042E 22041.83850054 .00001060 00000-0 11085-3 0 9996 2 42829 97.4373 263.2568 0015605 72.5750 287.7175 14.91521664249219 QIKCOM-1 1 42983U 98067NF 22041.73934512 .00043581 00000-0 28035-3 0 9991 2 42983 51.6348 122.5874 0001427 146.3365 213.7725 15.75739368244849 AO-91 1 43017U 17073E 22041.54255319 .00003282 00000-0 25549-3 0 9999 2 43017 97.6897 300.9128 0250813 242.9098 114.6328 14.80356177228334 PICSAT 1 43132U 18004X 22041.18527301 .00007908 00000-0 29236-3 0 9991 2 43132 97.3856 118.5433 0009884 90.0670 270.1702 15.27934547226959 AO-92 1 43137U 18004AC 22041.44633501 .00007464 00000-0 28519-3 0 9995 2 43137 97.3827 117.9274 0009841 91.8393 268.3973 15.26864371226957 TianYi 2 1 43155U 18008A 22041.77630743 .00005559 00000-0 31262-3 0 9992 2 43155 97.3725 104.3003 0015852 219.7096 280.3026 15.13562113224107 Zhou Enlai 1 43156U 18008B 22041.82050674 .00005814 00000-0 33006-3 0 9990 2 43156 97.3763 104.1926 0013146 219.3707 204.5799 15.13236764224049 TianYi 6 1 43158U 18008D 22041.74156416 .00004886 00000-0 28388-3 0 9999 2 43158 97.3718 102.3265 0012008 222.1641 261.3933 15.12494139223942 S-Net D 1 43186U 18014G 22041.54993228 .00001983 00000-0 17541-3 0 9999 2 43186 97.6672 309.7024 0010998 12.9504 347.1998 14.97395734219920 S-Net B 1 43187U 18014H 22041.48312948 .00001938 00000-0 17154-3 0 9997 2 43187 97.6669 309.5940 0011001 13.1302 347.0204 14.97394350219918 S-Net A 1 43188U 18014J 22041.55017342 .00001984 00000-0 17552-3 0 9999 2 43188 97.6674 309.7160 0010994 13.0118 347.1386 14.97394035219928 S-Net C 1 43189U 18014K 22041.48390711 .00001973 00000-0 17458-3 0 9999 2 43189 97.6669 309.5851 0011004 13.2032 346.9476 14.97392760218466 FMN 1 1 43192U 18015A 22041.88977400 .00017380 00000-0 56652-3 0 9992 2 43192 97.5148 184.4247 0013580 117.2709 5.2394 15.31792039224033 Shaonian Xing 1 43199U 18015H 22041.80247347 .00011854 00000-0 40814-3 0 9994 2 43199 97.4929 180.4565 0015632 127.2906 10.1971 15.30081920224052 SurfSat 1 43614U 18070B 22041.81395403 .00022791 00000-0 45730-3 0 9999 2 43614 93.0209 45.4265 0014460 144.0420 216.1814 15.46508699191444 CP-7 DAVE 1 43615U 18070C 22041.49942678 .00019277 00000-0 39391-3 0 9997 2 43615 93.0211 45.2089 0014565 145.8004 214.4195 15.45990085191371 ELFIN-B 1 43616U 18070D 22041.74289944 .00035344 00000-0 59001-3 0 9999 2 43616 93.0163 45.9439 0014100 137.3488 222.8870 15.51724264191623 ELFIN-A 1 43617U 18070E 22041.73056102 .00037191 00000-0 60142-3 0 9997 2 43617 93.0204 47.0524 0013684 133.1256 227.1153 15.52612514191651 CubeBel-1 1 43666U 18083E 22041.77070462 .00007016 00000-0 31995-3 0 9991 2 43666 97.4357 72.0268 0015581 60.0554 53.0432 15.20838153182214 Changshagaoxin 1 43669U 18083H 22041.82757152 .00005931 00000-0 28218-3 0 9996 2 43669 97.4288 68.4410 0011811 58.7875 58.1882 15.19486447182061 Ten-Koh 1 43677U 18084G 22041.36387607 .00001143 00000-0 12212-3 0 9997 2 43677 97.9442 170.4595 0015337 334.9790 25.0682 14.90710691178747 PO-101 1 43678U 18084H 22041.56500780 .00000347 00000-0 40082-4 0 9991 2 43678 97.9493 173.5340 0009839 353.3922 6.7156 14.91910090178937 IRVINE 01 1 43693U 18088D 22041.47354661 .00020793 00000-0 71813-3 0 9999 2 43693 85.0316 36.3249 0012845 213.4414 146.6022 15.29742042180765 QO-100 1 43700U 18090A 22041.56576519 .00000148 00000-0 00000 0 0 9997 2 43700 0.0096 127.1369 0002478 219.0926 23.8507 1.00274062 12000 Reaktor Hello World 1 43743U 18096AA 22041.18551113 .00007788 00000-0 26322-3 0 9997 2 43743 97.3646 121.8590 0017013 148.8284 211.3969 15.30782128178476 MinXSS-2 1 43758U 18099A 22041.17662761 .00001376 00000-0 12578-3 0 9992 2 43758 97.6399 112.1516 0014810 336.4405 23.6136 14.96559139174069 AO-95 1 43770U 18099N 22041.44536741 .00001649 00000-0 15280-3 0 9990 2 43770 97.6375 111.0627 0013953 346.7330 13.3523 14.95755449174029 RANGE-B 1 43772U 18099Q 22041.75199355 .00002924 00000-0 26404-3 0 9999 2 43772 97.6484 112.7658 0013046 333.5491 26.5063 14.96198279174083 RANGE-A 1 43773U 18099R 22041.40829192 .00001748 00000-0 16259-3 0 9991 2 43773 97.6308 110.0868 0012622 335.1300 24.9311 14.95537916174003 MOVE-II 1 43780U 18099Y 22041.42800216 .00002557 00000-0 22906-3 0 9992 2 43780 97.6412 111.9080 0012722 343.7776 16.3037 14.96632743174056 SNUSat 2 1 43782U 18099AA 22041.44170026 .00001345 00000-0 12498-3 0 9994 2 43782 97.6377 111.4823 0011922 332.6832 27.3761 14.95962490174048 SnugLite 1 43784U 18099AC 22041.42799870 .00001506 00000-0 13865-3 0 9996 2 43784 97.6343 111.1356 0014383 340.2887 19.7777 14.96127369174063 ITASat 1 1 43786U 18099AE 22041.72279387 .00001687 00000-0 15530-3 0 9998 2 43786 97.6397 112.1750 0014343 338.1621 21.8988 14.95992494174102 EAGLET 1 1 43790U 18099AJ 22041.43719840 .00000787 00000-0 74602-4 0 9990 2 43790 97.6392 112.3978 0012935 343.8963 16.1846 14.96285829173795 ESEO 1 43792U 18099AL 22041.46709775 .00001167 00000-0 10916-3 0 9991 2 43792 97.6351 111.8033 0012552 341.4240 18.6522 14.95923594173846 CSIM 1 43793U 18099AM 22041.45794238 .00003053 00000-0 26799-3 0 9991 2 43793 97.6399 112.6921 0011811 333.5970 26.4648 14.97282191173875 Astrocast 0.1 1 43798U 18099AS 22041.74350379 .00003776 00000-0 33511-3 0 9994 2 43798 97.6403 113.0177 0010958 321.5262 38.5178 14.96722265174150 JO-97 1 43803U 18099AX 22041.44103664 .00001674 00000-0 15275-3 0 9993 2 43803 97.6361 111.6375 0014413 338.4714 21.5899 14.96332535174073 Suomi 100 1 43804U 18099AY 22041.72012104 .00001939 00000-0 17637-3 0 9991 2 43804 97.6354 111.8525 0014335 337.5790 22.4803 14.96278633174121 Al Farabi 2 1 43805U 18099AZ 22041.61155401 .00003261 00000-0 29055-3 0 9995 2 43805 97.6382 112.1105 0014330 338.7007 21.3618 14.96633512174123 CHOMPTT 1 43855U 18104G 22041.52322429 .00006822 00000-0 26772-3 0 9992 2 43855 85.0381 135.6250 0015877 354.8016 5.3060 15.25408288175368 ISAT 1 43879U 18111D 22041.77899119 .00001943 00000-0 17284-3 0 9995 2 43879 97.6749 309.6981 0013908 30.1577 330.0443 14.97167075168699 UWE-4 1 43880U 18111E 22041.46383034 .00002231 00000-0 19674-3 0 9993 2 43880 97.6763 310.0086 0012740 31.2053 328.9923 14.97367178170691 Sparrow 1 43881U 18111F 22041.69131600 .00003410 00000-0 29735-3 0 9998 2 43881 97.6784 310.4169 0013178 31.3660 328.8345 14.97459346168730 Lume 1 1 43908U 18111AJ 22041.68304545 .00007564 00000-0 27901-3 0 9994 2 43908 97.2093 293.5827 0020005 160.4392 199.7620 15.27871012174026 FO-98 1 43933U 19003B 22041.78530445 .00108694 00000-0 25489-2 0 9998 2 43933 97.1563 80.5960 0009125 253.1182 106.9066 15.41616185170590 FO-99 1 43937U 19003F 22041.53827648 .00008752 00000-0 32453-3 0 9993 2 43937 97.1494 80.0008 0020422 244.8485 115.0637 15.27639830170581 MYSat 1 1 44045U 18092F 22041.20746902 .00025597 00000-0 53960-3 0 9990 2 44045 51.6366 342.5817 0008383 0.9769 359.1233 15.45037475168146 AstroCast 0.2 1 44083U 19018F 22041.70054257 .00010199 00000-0 41788-3 0 9998 2 44083 97.3423 103.1029 0011477 209.5372 150.5218 15.24411545159169 AISTechSat 3 1 44103U 19018AB 22041.70478272 .00007059 00000-0 28153-3 0 9990 2 44103 97.3285 103.5446 0011732 218.0011 142.0400 15.25431688159311 AISat 1 1 44104U 19018AC 22041.78282541 .00006753 00000-0 20225-3 0 9993 2 44104 97.4049 124.5956 0053712 225.0494 134.6387 15.33413230160176 Prox-1 1 44339U 19036A 22041.82271579 .00002774 00000-0 59369-3 0 9997 2 44339 24.0001 272.3281 0011133 267.5180 92.4036 14.54193601139983 Oculus-ASR 1 44348U 19036K 22041.48329989 .00051376 00000-0 61446-3 0 9999 2 44348 28.5105 339.2514 0289472 340.8681 18.1233 15.22843974145086 Armadillo 1 44352U 19036P 22041.81529672 .00116622 -29569-5 11072-2 0 9994 2 44352 28.5263 290.3897 0230250 57.5739 304.6912 15.38745428145554 NO-104 1 44354U 19036R 22041.50179276 .00055528 00000-0 63887-3 0 9995 2 44354 28.5276 328.3899 0282722 355.8777 3.9509 15.24967226145199 NO-103 1 44355U 19036S 22041.78163065 .00199296 38378-5 12042-2 0 9996 2 44355 28.5204 225.4492 0153786 162.7108 197.8807 15.61422149146238 Move-IIb 1 44398U 19038N 22041.57712599 .00008343 00000-0 44088-3 0 9998 2 44398 97.6110 10.2038 0022133 204.3451 155.6736 15.15539193143809 SONATE 1 44400U 19038Q 22041.55668201 .00003579 00000-0 20326-3 0 9995 2 44400 97.6209 9.7546 0023388 206.8052 153.1968 15.13354713143739 BeeSat 9 1 44412U 19038AC 22041.36613686 .00005970 00000-0 32498-3 0 9994 2 44412 97.6205 10.0759 0020397 209.5866 150.4213 15.14645181143443 JAISAT-1 1 44419U 19038F 22041.45800926 .00006610 00000-0 35475-3 0 9996 2 44419 97.6208 10.9044 0019465 206.6302 153.3932 15.15126220143816 LightSail-2 1 44420U 19036AC 22041.23969718 .00029735 00000-0 53077-2 0 9997 2 44420 24.0045 236.5731 0018303 305.6515 54.2275 14.65478276138320 Taurus 1 1 44530U 19059C 22041.79020891 .00001661 00000-0 47323-3 0 9991 2 44530 98.5459 139.1820 0015026 140.6340 219.5934 14.46506176127535 Duchifat 3 1 44854U 19089C 22041.41276119 .00003368 00000-0 27096-3 0 9999 2 44854 36.9651 132.8912 0008623 275.3378 84.6284 15.00109727118843 OPS-SAT 1 44878U 19092F 22041.50834420 .00007364 00000-0 36598-3 0 9991 2 44878 97.4764 226.7718 0014541 64.7213 295.5526 15.17856631118929 TO-108 1 44881U 19093C 22041.81738680 .00000482 00000-0 68112-4 0 9993 2 44881 97.9038 122.8081 0013743 235.6321 124.3579 14.81563689116027 FloripaSat 1 1 44885U 19093G 22041.82349461 .00001600 00000-0 20497-3 0 9999 2 44885 97.9065 123.8025 0013286 243.1447 116.8399 14.82631084116083 RS-44 1 44909U 19096E 22041.45722119 .00000003 00000-0 -25016-4 0 9993 2 44909 82.5235 314.6669 0216330 256.6576 101.0324 12.79711916 99261 Phoenix 1 45258U 98067RB 22041.46171321 .00060440 00000-0 54886-3 0 9996 2 45258 51.6339 210.9782 0002964 61.9426 298.1870 15.67395660112378 Quetzal 1 1 45598U 98067RL 22041.46830446 .00426299 82507-4 11471-2 0 9999 2 45598 51.6301 194.4163 0005910 296.7572 63.2831 15.93787702101925 BY70-2 1 45857U 20042B 22041.49602900 .00005302 00000-0 73929-3 0 9999 2 45857 97.9653 119.6891 0011613 161.1979 198.9629 14.78093805 86699 UPMSat 2 1 46276U 20061E 22041.51575120 .00003174 00000-0 16333-3 0 9993 2 46276 97.4072 115.2499 0000428 156.4692 203.6562 15.17139109 79629 AmicalSat 1 46287U 20061R 22041.47790096 .00004538 00000-0 27297-3 0 9997 2 46287 97.4622 114.2957 0002900 27.4660 332.6723 15.11329256 79281 SALSAT 1 46495U 20068K 22041.56933754 .00002260 00000-0 16823-3 0 9998 2 46495 97.7189 342.9965 0016470 352.3524 7.7448 15.03873216 75111 BY70-3 1 46839U 20079N 22041.86204396 .00013329 00000-0 37242-3 0 9994 2 46839 97.2150 116.0455 0008021 73.8988 17.3117 15.36786812 70770 SPOC 1 46921U 98067RR 22041.79790914 .00058679 00000-0 59831-3 0 9991 2 46921 51.6363 220.8317 0002273 245.4874 114.5885 15.64515739 72017 Bobcat-1 1 46922U 98067RS 22041.49874750 .00130698 00000-0 86030-3 0 9993 2 46922 51.6362 213.6073 0003680 264.0218 96.0361 15.74744867 72052 Neutron-1 1 46923U 98067RT 22041.51295316 .00053437 00000-0 54875-3 0 9999 2 46923 51.6369 222.6842 0002198 250.6963 109.3794 15.64374991 72004 CAPE 3 1 47309U 21002A 22041.55281333 .00007603 00000-0 33553-3 0 9995 2 47309 60.6849 120.9559 0025535 181.2447 178.8581 15.22364198 59111 AO-109 1 47311U 21002C 22041.79189729 .00006422 00000-0 27947-3 0 9998 2 47311 60.6868 118.2097 0022925 173.5549 186.5838 15.23128288 59164 MiTEE 1 1 47314U 21002F 22041.56086429 .00012260 00000-0 48153-3 0 9998 2 47314 60.6841 115.2611 0024915 163.6464 196.5434 15.25831189 59205 ExoCube 2 1 47319U 21002L 22041.55924032 .00006818 00000-0 29942-3 0 9990 2 47319 60.6845 119.8586 0023160 177.6405 182.4795 15.22727765 59076 UVSQ-SAT 1 47438U 21006AB 22041.12402807 .00003799 00000-0 21185-3 0 9996 2 47438 97.4566 102.7850 0012374 3.9707 356.1621 15.14114943 58001 YUSAT 1 1 47439U 21006AC 22041.77866382 .00005943 00000-0 32780-3 0 9996 2 47439 97.4574 103.4568 0012123 2.1314 357.9967 15.14278114 58106 SOMP 2b 1 47445U 21006AJ 22041.43122955 .00004461 00000-0 24957-3 0 9998 2 47445 97.4543 102.8473 0012100 7.3904 352.7504 15.13905169 58043 IDEASSat 1 47458U 21006AX 22041.20142014 .00003824 00000-0 21544-3 0 9996 2 47458 97.4630 102.9999 0011198 6.9056 353.2328 15.13755982 58009 RSP-01 1 47925U 98067SB 22041.52260308 .00060264 00000-0 66448-3 0 9991 2 47925 51.6382 230.9946 0002712 214.1908 145.8912 15.62508278 51835 TAUSAT-1 1 47926U 98067SC 22041.74952314 .00090785 00000-0 83601-3 0 9992 2 47926 51.6377 226.4837 0003652 220.0826 139.9901 15.66879852 51901 Tsuru 1 47927U 98067SD 22041.80624502 .00054749 00000-0 63789-3 0 9990 2 47927 51.6371 230.6329 0002608 209.1497 150.9351 15.61122456 51864 STARS-EC 1 47928U 98067SE 22041.79281258 .00120380 00000-0 10443-2 0 9999 2 47928 51.6362 226.7707 0005567 265.0080 95.0281 15.68213193 51897 Maya-2 1 47929U 98067SF 22041.80216760 .00054881 00000-0 64009-3 0 9998 2 47929 51.6374 230.6042 0002636 205.9495 154.1367 15.61094296 51823 OPUSAT-II 1 47930U 98067SG 22041.74329772 .00119346 00000-0 99091-3 0 9998 2 47930 51.6356 225.6983 0003546 228.9448 131.1243 15.69295694 51929 GuaraniSat-1 1 47931U 98067SH 22041.79611242 .00054388 00000-0 63210-3 0 9998 2 47931 51.6383 230.5744 0002694 206.5006 153.5851 15.61189980 51863 CubeSX-Sirius-HSE 1 47951U 21022V 22041.86827591 .00003482 00000-0 23961-3 0 9999 2 47951 97.5434 304.0597 0020595 215.1622 235.0522 15.06380908 48931 CubeSX-HSE 1 47952U 21022W 22041.85389668 .00003407 00000-0 23433-3 0 9998 2 47952 97.5431 304.0580 0020394 214.5772 203.5194 15.06420552 48932 KSU-Cubesat 1 47954U 21022Y 22041.42430754 .00003174 00000-0 21786-3 0 9996 2 47954 97.5428 303.6961 0020121 216.2237 143.7629 15.06548209 48591 GRBAlpha 1 47959U 21022AD 22041.85471567 .00003394 00000-0 23334-3 0 9990 2 47959 97.5437 304.0845 0020201 215.2259 209.4542 15.06432222 47752 Orbicraft-Zorkiy 1 47960U 21022AE 22041.77633025 .00003113 00000-0 21398-3 0 9999 2 47960 97.5447 304.0939 0019607 215.6861 229.0383 15.06519561 48439 STECCO 1 47962U 21022AG 22041.80086043 .00005627 00000-0 36979-3 0 9990 2 47962 97.5408 304.5237 0015320 209.6070 237.3129 15.07905152 47779 DO-111 1 47963U 21022AH 22041.22710060 .00009844 00000-0 61525-3 0 9990 2 47963 97.5433 304.3907 0017361 206.7448 153.2887 15.09526608 47734 MO-110 1 47964U 21022AJ 22041.72530995 .00005709 00000-0 37155-3 0 9991 2 47964 97.5431 304.6183 0018270 206.3231 153.7070 15.08213469 47778 FEES 1 48082U 21022AL 22041.67151565 .00008011 00000-0 52188-3 0 9991 2 48082 97.5438 304.4292 0014604 203.1255 156.9318 15.08102031 47462 RamSat 1 48850U 98067SL 22041.82632066 .00035729 00000-0 50280-3 0 9991 2 48850 51.6387 236.7366 0003394 292.3558 67.7074 15.56301203 37538 MO-112 1 48868U 98067SP 22041.79180075 .00117069 00000-0 11145-2 0 9998 2 48868 51.6358 231.9930 0003643 260.9506 99.1078 15.65939115 36373 TUBIN 1 48900U 21059X 22041.89068469 .00003675 00000-0 21268-3 0 9990 2 48900 97.5341 172.4779 0010360 171.4926 306.3522 15.12828610 34775 IT-SPINS 1 49017U 21013G 22041.08458094 .00006363 00000-0 27137-3 0 9996 2 49017 51.6006 288.0519 0007282 334.3173 25.7442 15.24142020 34346 LEDSAT 1 49069U 21073D 22041.72268886 .00002683 00000-0 17874-3 0 9996 2 49069 97.5389 117.1473 0028042 11.8917 348.2967 15.07641541 26739 CUTE 1 49263U 21088D 22041.46327441 .00003438 00000-0 26532-3 0 9992 2 49263 97.6073 111.9279 0021213 136.1404 224.1509 15.02049512 20358 Binar-1 1 49272U 98067SR 22041.82440445 .00037984 00000-0 56467-3 0 9996 2 49272 51.6388 239.7078 0005434 203.1297 156.9450 15.54769964 19885 Maya-3 1 49273U 98067SS 22041.78704263 .00045987 00000-0 65265-3 0 9991 2 49273 51.6387 239.4587 0005471 202.4270 157.6483 15.55945911 19884 Maya-4 1 49274U 98067ST 22041.79170874 .00045175 00000-0 64341-3 0 9991 2 49274 51.6387 239.4899 0005413 201.1103 158.9666 15.55858075 19889 CUAVA-1 1 49275U 98067SU 22041.81454456 .00033625 00000-0 48775-3 0 9996 2 49275 51.6406 239.3855 0005352 203.1270 275.1847 15.55500545 19836 TeikyoSat 4 1 49396U 21102B 22041.52028226 .00001631 00000-0 13413-3 0 9999 2 49396 97.5560 103.4097 0017880 325.1125 34.8926 15.00374334 14010 Z-Sat 1 49399U 21102E 22041.74685357 .00000688 00000-0 56722-4 0 9992 2 49399 97.5566 103.9355 0019867 305.6261 54.3113 15.02097093 14068 KOSEN 1 1 49402U 21102H 22041.75824000 .00001589 00000-0 12210-3 0 9992 2 49402 97.5504 103.9893 0020341 293.2442 66.6641 15.03011856 14071 HO-113 1 50466U 21131B 22041.50618200 .00000128 00000-0 56489-4 0 9997 2 50466 98.5918 118.7723 0005169 153.8502 206.2949 14.38441367 6668 Grizu-263a 1 51025U 22002AT 22041.72182268 .00010132 00000-0 56880-3 0 9991 2 51025 97.5153 111.0045 0014788 138.0977 222.1389 15.13438496 4252 IRIS-A 1 51044U 22002BN 22041.47500557 .00003595 00000-0 21104-3 0 9995 2 51044 97.4995 110.6601 0010566 136.3593 223.8475 15.12317991 4219 DELFI-PQ 1 51074U 22002CU 22041.43390812 .00007718 00000-0 41948-3 0 9994 2 51074 97.5231 110.8058 0014900 168.6692 191.4878 15.14677801 4216 VZLUSAT 2 1 51085U 22002DF 22041.41503871 .00003011 00000-0 18124-3 0 9997 2 51085 97.5033 110.6033 0015743 148.3414 211.8766 15.11480716 4208 GASPACS 1 51439U 98067TB 22041.59073388 .00068841 00000-0 11209-2 0 9996 2 51439 51.6396 243.3872 0007234 126.7838 233.3817 15.51980454 2375 GT 1 1 51510U 98067TH 22041.85677280 .00048083 00000-0 81443-3 0 9990 2 51510 51.6425 242.1552 0007882 122.4740 237.7035 15.51024012 1226 /EX